Location: *
(23.5860°S, 65.4036°W)
Time: 19:48:04
(UTC+00:00)

CZ-3 Stage 3 - Pass Details

Date: 25 August 2019
Orbit: 233 x 16082 km, 30.8° (Epoch: 22 September)

Event Time Altitude Azimuth Distance (km) Brightness Sun altitude
Rises 21:45:29 0° 248° (WSW) 16,826 9.8 4.3°
Reaches altitude 10° 22:09:52 10° 248° (WSW) 11,799 9.1 -1.1°
Maximum altitude 22:41:38 59° 320° (NW) 2,038 4.4 -8.3°
Drops below altitude 10° 22:47:22 10° 40° (NE) 2,523 4.4 -9.6°
Sets 22:48:51 0° 45° (NE) 3,064 4.8 -9.9°
